Time,TemperatureF,DewpointF,PressureIn,WindDirection,WindDirectionDegrees,WindSpeedMPH,WindSpeedGustMPH,Humidity,HourlyPrecipIn,Conditions,Clouds,dailyrainin,SoftwareType,DateUTC
2013-03-15 00:03:00,33.6,28.3,30.10,SE,135,0.0,0.0,81,0.00,,,0.00,WUHU216HW,2013-03-15 04:03:00,
2013-03-15 00:08:00,33.6,28.3,30.10,SE,135,0.0,0.0,81,0.00,,,0.00,WUHU216HW,2013-03-15 04:08:00,
2013-03-15 00:13:00,33.6,28.3,30.10,SE,135,0.0,0.0,81,0.00,,,0.00,WUHU216HW,2013-03-15 04:13:00,
2013-03-15 00:18:00,33.6,28.3,30.10,SE,135,0.0,0.0,81,0.00,,,0.00,WUHU216HW,2013-03-15 04:18:00,
2013-03-15 00:23:00,33.6,28.3,30.09,SE,135,0.0,0.0,81,0.00,,,0.00,WUHU216HW,2013-03-15 04:23:00,
2013-03-15 00:28:00,33.6,28.3,30.09,SE,135,0.0,0.0,81,0.00,,,0.00,WUHU216HW,2013-03-15 04:28:00,
2013-03-15 00:33:00,33.6,28.3,30.09,SE,135,0.0,0.0,81,0.00,,,0.00,WUHU216HW,2013-03-15 04:33:00,
2013-03-15 00:38:00,33.6,28.3,30.09,SE,135,0.0,0.0,81,0.00,,,0.00,WUHU216HW,2013-03-15 04:38:00,
2013-03-15 00:43:00,33.6,28.3,30.08,SE,135,0.0,0.0,81,0.00,,,0.00,WUHU216HW,2013-03-15 04:43:00,
2013-03-15 00:48:00,33.6,28.3,30.08,SE,135,0.0,0.0,81,0.00,,,0.00,WUHU216HW,2013-03-15 04:48:00,
2013-03-15 00:53:00,33.6,28.6,30.07,SE,135,0.0,0.0,82,0.00,,,0.00,WUHU216HW,2013-03-15 04:53:00,
2013-03-15 00:58:00,33.6,28.6,30.07,SE,135,0.0,0.0,82,0.00,,,0.00,WUHU216HW,2013-03-15 04:58:00,
2013-03-15 01:03:00,33.4,28.4,30.07,SE,135,0.0,0.0,82,0.00,,,0.00,WUHU216HW,2013-03-15 05:03:00,
2013-03-15 01:08:00,33.4,28.4,30.07,SE,135,0.0,0.0,82,0.00,,,0.00,WUHU216HW,2013-03-15 05:08:00,
2013-03-15 01:13:00,33.2,28.3,30.06,SE,135,0.0,0.0,82,0.00,,,0.00,WUHU216HW,2013-03-15 05:13:00,
2013-03-15 01:18:00,33.2,28.3,30.06,SE,135,0.0,0.0,82,0.00,,,0.00,WUHU216HW,2013-03-15 05:18:00,
2013-03-15 01:23:00,33.0,28.1,30.06,SE,135,0.0,0.0,82,0.00,,,0.00,WUHU216HW,2013-03-15 05:23:00,
2013-03-15 01:28:00,33.0,28.1,30.06,SE,135,0.0,0.0,82,0.00,,,0.00,WUHU216HW,2013-03-15 05:28:00,
2013-03-15 01:33:00,32.9,27.9,30.05,SE,135,0.0,0.0,82,0.00,,,0.00,WUHU216HW,2013-03-15 05:33:00,
2013-03-15 01:38:00,32.7,27.8,30.05,SE,135,0.0,0.0,82,0.00,,,0.00,WUHU216HW,2013-03-15 05:38:00,
2013-03-15 01:43:00,32.7,27.8,30.05,SE,135,0.0,0.0,82,0.00,,,0.00,WUHU216HW,2013-03-15 05:43:00,
2013-03-15 01:48:00,32.5,27.6,30.05,SE,135,0.0,0.0,82,0.00,,,0.00,WUHU216HW,2013-03-15 05:48:00,
2013-03-15 01:53:00,32.3,27.5,30.05,SE,135,0.0,0.0,82,0.00,,,0.00,WUHU216HW,2013-03-15 05:53:00,
2013-03-15 01:58:00,32.3,27.5,30.05,SE,135,0.0,0.0,82,0.00,,,0.00,WUHU216HW,2013-03-15 05:58:00,
2013-03-15 02:03:00,32.1,27.3,30.04,SE,135,0.0,0.0,82,0.00,,,0.00,WUHU216HW,2013-03-15 06:03:00,
2013-03-15 02:08:00,32.1,27.3,30.04,SE,135,0.0,0.0,82,0.00,,,0.00,WUHU216HW,2013-03-15 06:08:00,
2013-03-15 02:13:00,32.1,27.3,30.04,SE,135,0.0,0.0,82,0.00,,,0.00,WUHU216HW,2013-03-15 06:13:00,
2013-03-15 02:18:00,31.8,26.9,30.04,SE,135,0.0,0.0,82,0.00,,,0.00,WUHU216HW,2013-03-15 06:18:00,
2013-03-15 02:23:00,31.8,26.9,30.04,SE,135,0.0,0.0,82,0.00,,,0.00,WUHU216HW,2013-03-15 06:23:00,
2013-03-15 02:28:00,31.8,26.9,30.03,SE,135,0.0,0.0,82,0.00,,,0.00,WUHU216HW,2013-03-15 06:28:00,
2013-03-15 02:33:00,31.8,26.9,30.03,SE,135,0.0,0.0,82,0.00,,,0.00,WUHU216HW,2013-03-15 06:33:00,
2013-03-15 02:38:00,31.6,26.8,30.03,SE,135,0.0,0.0,82,0.00,,,0.00,WUHU216HW,2013-03-15 06:38:00,
2013-03-15 02:43:00,31.6,26.8,30.03,SE,135,0.0,0.0,82,0.00,,,0.00,WUHU216HW,2013-03-15 06:43:00,
2013-03-15 02:48:00,31.4,26.6,30.03,SE,135,0.0,0.0,82,0.00,,,0.00,WUHU216HW,2013-03-15 06:48:00,
2013-03-15 02:53:00,31.2,26.4,30.03,SE,135,0.0,0.0,82,0.00,,,0.00,WUHU216HW,2013-03-15 06:53:00,
2013-03-15 02:58:00,31.2,26.4,30.03,SE,135,0.0,0.0,82,0.00,,,0.00,WUHU216HW,2013-03-15 06:58:00,
2013-03-15 03:03:00,31.2,26.4,30.03,SE,135,0.0,0.0,82,0.00,,,0.00,WUHU216HW,2013-03-15 07:03:00,
2013-03-15 03:08:00,31.1,26.2,30.02,SE,135,0.0,0.0,82,0.00,,,0.00,WUHU216HW,2013-03-15 07:08:00,
2013-03-15 03:13:00,30.9,26.0,30.03,SE,135,0.0,0.0,82,0.00,,,0.00,WUHU216HW,2013-03-15 07:13:00,
2013-03-15 03:18:00,30.9,26.0,30.02,SE,135,0.0,0.0,82,0.00,,,0.00,WUHU216HW,2013-03-15 07:18:00,
2013-03-15 03:23:00,30.7,25.9,30.02,SE,135,0.0,0.0,82,0.00,,,0.00,WUHU216HW,2013-03-15 07:23:00,
2013-03-15 03:28:00,30.7,25.9,30.01,SE,135,0.0,0.0,82,0.00,,,0.00,WUHU216HW,2013-03-15 07:28:00,
2013-03-15 03:33:00,30.7,25.9,30.01,SE,135,0.0,0.0,82,0.00,,,0.00,WUHU216HW,2013-03-15 07:33:00,
2013-03-15 03:38:00,30.5,25.7,30.01,SE,135,0.0,0.0,82,0.00,,,0.00,WUHU216HW,2013-03-15 07:38:00,
2013-03-15 03:43:00,30.3,25.5,30.00,SE,135,0.0,0.0,82,0.00,,,0.00,WUHU216HW,2013-03-15 07:43:00,
2013-03-15 03:48:00,30.3,25.5,30.00,SE,135,0.0,0.0,82,0.00,,,0.00,WUHU216HW,2013-03-15 07:48:00,
2013-03-15 03:53:00,30.2,25.3,30.00,SE,135,0.0,0.0,82,0.00,,,0.00,WUHU216HW,2013-03-15 07:53:00,
2013-03-15 03:58:00,30.2,25.3,30.00,SE,135,0.0,0.0,82,0.00,,,0.00,WUHU216HW,2013-03-15 07:58:00,
2013-03-15 04:03:00,30.0,25.1,29.99,SE,135,0.0,0.0,82,0.00,,,0.00,WUHU216HW,2013-03-15 08:03:00,
2013-03-15 04:08:00,30.0,25.1,29.98,SE,135,0.0,0.0,82,0.00,,,0.00,WUHU216HW,2013-03-15 08:08:00,
2013-03-15 04:13:00,29.8,25.0,29.98,SE,135,0.0,0.0,82,0.00,,,0.00,WUHU216HW,2013-03-15 08:13:00,
2013-03-15 04:18:00,29.6,24.8,29.97,SE,135,0.0,0.0,82,0.00,,,0.00,WUHU216HW,2013-03-15 08:18:00,
2013-03-15 04:23:00,29.4,24.6,29.97,SE,135,0.0,0.0,82,0.00,,,0.00,WUHU216HW,2013-03-15 08:23:00,
2013-03-15 04:28:00,29.3,24.4,29.97,SE,135,0.0,0.0,82,0.00,,,0.00,WUHU216HW,2013-03-15 08:28:00,
2013-03-15 04:33:00,29.1,24.2,29.96,SE,135,0.0,0.0,82,0.00,,,0.00,WUHU216HW,2013-03-15 08:33:00,
2013-03-15 04:38:00,29.1,24.2,29.96,SE,135,0.0,0.0,82,0.00,,,0.00,WUHU216HW,2013-03-15 08:38:00,
2013-03-15 04:43:00,29.1,24.2,29.95,SE,135,0.0,0.0,82,0.00,,,0.00,WUHU216HW,2013-03-15 08:43:00,
2013-03-15 04:48:00,28.9,24.1,29.95,SE,135,0.0,0.0,82,0.00,,,0.00,WUHU216HW,2013-03-15 08:48:00,
2013-03-15 04:53:00,28.7,23.9,29.95,SE,135,0.0,0.0,82,0.00,,,0.00,WUHU216HW,2013-03-15 08:53:00,
2013-03-15 04:58:00,28.7,23.9,29.95,SE,135,0.0,0.0,82,0.00,,,0.00,WUHU216HW,2013-03-15 08:58:00,
2013-03-15 05:03:00,28.5,23.7,29.95,SE,135,0.0,0.0,82,0.00,,,0.00,WUHU216HW,2013-03-15 09:03:00,
2013-03-15 05:08:00,28.5,23.7,29.94,SE,135,0.0,0.0,82,0.00,,,0.00,WUHU216HW,2013-03-15 09:08:00,
2013-03-15 05:13:00,28.5,23.7,29.95,SE,135,0.0,0.0,82,0.00,,,0.00,WUHU216HW,2013-03-15 09:13:00,
2013-03-15 05:18:00,28.2,23.3,29.95,SE,135,0.0,0.0,82,0.00,,,0.00,WUHU216HW,2013-03-15 09:18:00,
2013-03-15 05:23:00,28.2,23.3,29.95,SE,135,0.0,0.0,82,0.00,,,0.00,WUHU216HW,2013-03-15 09:23:00,
2013-03-15 05:28:00,28.0,23.2,29.95,SE,135,0.0,0.0,82,0.00,,,0.00,WUHU216HW,2013-03-15 09:28:00,
2013-03-15 05:34:00,28.0,23.2,29.95,SE,135,0.0,0.0,82,0.00,,,0.00,WUHU216HW,2013-03-15 09:34:00,
2013-03-15 05:39:00,27.8,23.0,29.96,SE,135,0.0,0.0,82,0.00,,,0.00,WUHU216HW,2013-03-15 09:39:00,
2013-03-15 05:44:00,27.6,22.8,29.96,SE,135,0.0,0.0,82,0.00,,,0.00,WUHU216HW,2013-03-15 09:44:00,
2013-03-15 05:49:00,27.6,22.8,29.95,SE,135,0.0,0.0,82,0.00,,,0.00,WUHU216HW,2013-03-15 09:49:00,
2013-03-15 05:54:00,27.6,22.8,29.96,SE,135,0.0,0.0,82,0.00,,,0.00,WUHU216HW,2013-03-15 09:54:00,
2013-03-15 05:59:00,27.6,23.1,29.96,SE,135,0.0,0.0,83,0.00,,,0.00,WUHU216HW,2013-03-15 09:59:00,
2013-03-15 06:04:00,27.6,23.1,29.96,SE,135,0.0,0.0,83,0.00,,,0.00,WUHU216HW,2013-03-15 10:04:00,
2013-03-15 06:09:00,27.5,22.9,29.96,SE,135,0.0,0.0,83,0.00,,,0.00,WUHU216HW,2013-03-15 10:09:00,
2013-03-15 06:14:00,27.5,22.9,29.96,SE,135,0.0,0.0,83,0.00,,,0.00,WUHU216HW,2013-03-15 10:14:00,
2013-03-15 06:19:00,27.5,22.9,29.96,SE,135,0.0,0.0,83,0.00,,,0.00,WUHU216HW,2013-03-15 10:19:00,
2013-03-15 06:24:00,27.3,22.7,29.96,SE,135,0.0,0.0,83,0.00,,,0.00,WUHU216HW,2013-03-15 10:24:00,
2013-03-15 06:29:00,27.3,22.7,29.96,SE,135,0.0,0.0,83,0.00,,,0.00,WUHU216HW,2013-03-15 10:29:00,
2013-03-15 06:34:00,27.3,22.7,29.96,SE,135,0.0,0.0,83,0.00,,,0.00,WUHU216HW,2013-03-15 10:34:00,
2013-03-15 06:39:00,27.1,22.6,29.96,SE,135,0.0,0.0,83,0.00,,,0.00,WUHU216HW,2013-03-15 10:39:00,
2013-03-15 06:44:00,27.1,22.6,29.96,SE,135,0.0,0.0,83,0.00,,,0.00,WUHU216HW,2013-03-15 10:44:00,
2013-03-15 06:49:00,27.1,22.6,29.96,SE,135,0.0,0.0,83,0.00,,,0.00,WUHU216HW,2013-03-15 10:49:00,
2013-03-15 06:54:00,27.1,22.6,29.96,SE,135,0.0,0.0,83,0.00,,,0.00,WUHU216HW,2013-03-15 10:54:00,
2013-03-15 06:59:00,27.1,22.6,29.96,SE,135,0.0,0.0,83,0.00,,,0.00,WUHU216HW,2013-03-15 10:59:00,
2013-03-15 07:04:00,26.9,22.4,29.97,SE,135,0.0,0.0,83,0.00,,,0.00,WUHU216HW,2013-03-15 11:04:00,
2013-03-15 07:09:00,26.9,22.4,29.96,SE,135,0.0,0.0,83,0.00,,,0.00,WUHU216HW,2013-03-15 11:09:00,
2013-03-15 07:14:00,26.7,22.2,29.96,SE,135,0.0,0.0,83,0.00,,,0.00,WUHU216HW,2013-03-15 11:14:00,
2013-03-15 07:19:00,26.7,22.2,29.96,SE,135,0.0,0.0,83,0.00,,,0.00,WUHU216HW,2013-03-15 11:19:00,
2013-03-15 07:24:00,26.7,22.2,29.95,SE,135,0.0,0.0,83,0.00,,,0.00,WUHU216HW,2013-03-15 11:24:00,
2013-03-15 07:29:00,26.6,22.0,29.95,SE,135,0.0,0.0,83,0.00,,,0.00,WUHU216HW,2013-03-15 11:29:00,
2013-03-15 07:34:00,26.7,22.2,29.94,SE,135,0.0,0.0,83,0.00,,,0.00,WUHU216HW,2013-03-15 11:34:00,
2013-03-15 07:39:00,26.6,22.0,29.94,SE,135,0.0,0.0,83,0.00,,,0.00,WUHU216HW,2013-03-15 11:39:00,
2013-03-15 07:44:00,26.6,22.0,29.94,SE,135,0.0,0.0,83,0.00,,,0.00,WUHU216HW,2013-03-15 11:44:00,
2013-03-15 07:49:00,26.4,21.8,29.93,SE,135,0.0,0.0,83,0.00,,,0.00,WUHU216HW,2013-03-15 11:49:00,
2013-03-15 07:54:00,26.4,21.8,29.93,SE,135,0.0,0.0,83,0.00,,,0.00,WUHU216HW,2013-03-15 11:54:00,
2013-03-15 07:59:00,26.4,21.8,29.93,SE,135,0.0,0.0,83,0.00,,,0.00,WUHU216HW,2013-03-15 11:59:00,
2013-03-15 08:04:00,26.4,21.8,29.93,SE,135,0.0,0.0,83,0.00,,,0.00,WUHU216HW,2013-03-15 12:04:00,
2013-03-15 08:09:00,26.4,21.8,29.92,SE,135,0.0,0.0,83,0.00,,,0.00,WUHU216HW,2013-03-15 12:09:00,
2013-03-15 08:14:00,26.4,21.8,29.92,SE,135,0.0,0.0,83,0.00,,,0.00,WUHU216HW,2013-03-15 12:14:00,
2013-03-15 08:19:00,26.4,21.8,29.93,SE,135,0.0,0.0,83,0.00,,,0.00,WUHU216HW,2013-03-15 12:19:00,
2013-03-15 08:24:00,26.4,21.8,29.92,SE,135,0.0,0.0,83,0.00,,,0.00,WUHU216HW,2013-03-15 12:24:00,
2013-03-15 08:29:00,26.4,21.8,29.92,SE,135,0.0,0.0,83,0.00,,,0.00,WUHU216HW,2013-03-15 12:29:00,
2013-03-15 08:34:00,26.4,21.8,29.92,SE,135,0.0,0.0,83,0.00,,,0.00,WUHU216HW,2013-03-15 12:34:00,
2013-03-15 08:39:00,26.4,21.8,29.92,SE,135,0.0,0.0,83,0.00,,,0.00,WUHU216HW,2013-03-15 12:39:00,
2013-03-15 08:44:00,26.4,21.8,29.92,SE,135,0.0,0.0,83,0.00,,,0.00,WUHU216HW,2013-03-15 12:44:00,
2013-03-15 08:49:00,26.6,22.0,29.92,SE,135,0.0,0.0,83,0.00,,,0.00,WUHU216HW,2013-03-15 12:49:00,
2013-03-15 08:54:00,26.7,22.2,29.92,SE,135,0.0,0.0,83,0.00,,,0.00,WUHU216HW,2013-03-15 12:54:00,
2013-03-15 08:59:00,26.7,22.2,29.92,SE,135,0.0,0.0,83,0.00,,,0.00,WUHU216HW,2013-03-15 12:59:00,
2013-03-15 09:04:00,26.7,22.2,29.92,SE,135,0.0,0.0,83,0.00,,,0.00,WUHU216HW,2013-03-15 13:04:00,
2013-03-15 09:09:00,26.9,22.4,29.92,SE,135,0.0,0.0,83,0.00,,,0.00,WUHU216HW,2013-03-15 13:09:00,
2013-03-15 09:14:00,27.1,22.6,29.92,SE,135,0.0,0.0,83,0.00,,,0.00,WUHU216HW,2013-03-15 13:14:00,
2013-03-15 09:19:00,27.3,23.0,29.92,SE,135,0.0,0.0,84,0.00,,,0.00,WUHU216HW,2013-03-15 13:19:00,
2013-03-15 09:24:00,27.5,23.2,29.92,SE,135,0.0,0.0,84,0.00,,,0.00,WUHU216HW,2013-03-15 13:24:00,
2013-03-15 09:29:00,27.6,23.4,29.92,SE,135,0.0,0.0,84,0.00,,,0.00,WUHU216HW,2013-03-15 13:29:00,
2013-03-15 09:34:00,28.0,23.7,29.92,SE,135,0.0,0.0,84,0.00,,,0.00,WUHU216HW,2013-03-15 13:34:00,
2013-03-15 09:39:00,28.2,23.9,29.92,SE,135,0.0,0.0,84,0.00,,,0.00,WUHU216HW,2013-03-15 13:39:00,
2013-03-15 09:44:00,28.4,24.1,29.91,SE,135,0.0,0.0,84,0.00,,,0.00,WUHU216HW,2013-03-15 13:44:00,
2013-03-15 09:49:00,28.7,24.5,29.91,SE,135,0.0,0.0,84,0.00,,,0.00,WUHU216HW,2013-03-15 13:49:00,
2013-03-15 09:54:00,28.9,24.6,29.92,SE,135,0.0,0.0,84,0.00,,,0.00,WUHU216HW,2013-03-15 13:54:00,
2013-03-15 09:59:00,29.3,25.0,29.92,SE,135,0.0,0.0,84,0.00,,,0.00,WUHU216HW,2013-03-15 13:59:00,
2013-03-15 10:04:00,29.4,25.2,29.92,SE,135,0.0,0.0,84,0.00,,,0.00,WUHU216HW,2013-03-15 14:04:00,
2013-03-15 10:09:00,30.0,25.7,29.92,SE,135,0.0,0.0,84,0.00,,,0.00,WUHU216HW,2013-03-15 14:09:00,
2013-03-15 10:14:00,30.3,26.1,29.92,SE,135,0.0,0.0,84,0.00,,,0.00,WUHU216HW,2013-03-15 14:14:00,
2013-03-15 10:19:00,30.7,26.4,29.91,SE,135,0.0,0.0,84,0.02,,,0.02,WUHU216HW,2013-03-15 14:19:00,
2013-03-15 10:24:00,31.2,27.0,29.91,SE,135,0.0,0.0,84,0.02,,,0.02,WUHU216HW,2013-03-15 14:24:00,
2013-03-15 10:29:00,31.8,27.8,29.91,SE,135,0.0,0.0,85,0.02,,,0.02,WUHU216HW,2013-03-15 14:29:00,
2013-03-15 10:34:00,32.1,28.2,29.91,SE,135,0.0,0.0,85,0.02,,,0.02,WUHU216HW,2013-03-15 14:34:00,
2013-03-15 10:39:00,32.5,28.5,29.90,SE,135,0.0,0.0,85,0.02,,,0.02,WUHU216HW,2013-03-15 14:39:00,
2013-03-15 10:44:00,32.9,28.8,29.90,ESE,113,0.0,0.0,85,0.02,,,0.02,WUHU216HW,2013-03-15 14:44:00,
2013-03-15 10:49:00,33.2,29.1,29.91,ESE,113,0.0,0.0,85,0.02,,,0.02,WUHU216HW,2013-03-15 14:49:00,
2013-03-15 10:54:00,33.6,29.4,29.90,ESE,113,0.0,0.0,85,0.02,,,0.02,WUHU216HW,2013-03-15 14:54:00,
2013-03-15 10:59:00,34.3,30.2,29.90,WSW,248,0.0,0.0,85,0.02,,,0.02,WUHU216HW,2013-03-15 14:59:00,
2013-03-15 11:04:00,34.5,30.3,29.90,West,270,0.0,0.0,85,0.02,,,0.02,WUHU216HW,2013-03-15 15:04:00,
2013-03-15 11:09:00,35.0,30.9,29.90,West,270,0.4,0.4,85,0.02,,,0.02,WUHU216HW,2013-03-15 15:09:00,
2013-03-15 11:14:00,35.7,31.9,29.90,SSW,203,1.7,1.7,86,0.02,,,0.02,WUHU216HW,2013-03-15 15:14:00,
2013-03-15 11:19:00,36.3,32.4,29.90,South,180,0.0,1.7,86,0.00,,,0.02,WUHU216HW,2013-03-15 15:19:00,
2013-03-15 11:24:00,36.6,32.8,29.90,WSW,248,0.0,1.7,86,0.00,,,0.02,WUHU216HW,2013-03-15 15:24:00,
2013-03-15 11:29:00,37.5,33.4,29.90,SSE,158,0.0,0.0,85,0.00,,,0.02,WUHU216HW,2013-03-15 15:29:00,
2013-03-15 11:34:00,38.1,33.9,29.90,WSW,248,0.0,0.0,85,0.00,,,0.02,WUHU216HW,2013-03-15 15:34:00,
2013-03-15 11:39:00,38.4,34.3,29.90,WNW,293,0.0,1.5,85,0.00,,,0.02,WUHU216HW,2013-03-15 15:39:00,
2013-03-15 11:44:00,39.0,34.5,29.89,WSW,248,0.0,3.3,84,0.00,,,0.02,WUHU216HW,2013-03-15 15:44:00,
2013-03-15 11:49:00,39.3,34.9,29.89,WNW,293,4.4,4.4,84,0.00,,,0.02,WUHU216HW,2013-03-15 15:49:00,
2013-03-15 11:54:00,39.5,34.8,29.89,NW,315,0.0,4.4,83,0.00,,,0.02,WUHU216HW,2013-03-15 15:54:00,
2013-03-15 11:59:00,39.9,35.1,29.89,WSW,248,0.0,0.6,83,0.00,,,0.02,WUHU216HW,2013-03-15 15:59:00,
2013-03-15 12:04:00,40.2,35.4,29.89,West,270,0.0,0.6,83,0.00,,,0.02,WUHU216HW,2013-03-15 16:04:00,
2013-03-15 12:09:00,40.6,35.8,29.89,South,180,0.0,0.6,83,0.00,,,0.02,WUHU216HW,2013-03-15 16:09:00,
2013-03-15 12:14:00,41.1,36.0,29.89,SSE,158,0.0,2.4,82,0.00,,,0.02,WUHU216HW,2013-03-15 16:14:00,
2013-03-15 12:19:00,41.5,36.3,29.89,SSW,203,0.6,2.4,82,0.00,,,0.02,WUHU216HW,2013-03-15 16:19:00,
2013-03-15 12:24:00,41.7,36.2,29.89,SSW,203,0.0,0.6,81,0.00,,,0.02,WUHU216HW,2013-03-15 16:24:00,
2013-03-15 12:29:00,42.0,36.6,29.89,SSW,203,0.0,0.0,81,0.00,,,0.02,WUHU216HW,2013-03-15 16:29:00,
2013-03-15 12:34:00,42.4,36.9,29.89,SSW,203,0.0,0.0,81,0.00,,,0.02,WUHU216HW,2013-03-15 16:34:00,
2013-03-15 12:39:00,42.6,37.1,29.89,SSW,203,0.0,0.0,81,0.00,,,0.02,WUHU216HW,2013-03-15 16:39:00,
2013-03-15 12:44:00,42.9,37.5,29.89,North,0,0.0,0.0,81,0.00,,,0.02,WUHU216HW,2013-03-15 16:44:00,
2013-03-15 12:49:00,43.1,37.4,29.90,North,0,0.0,0.0,80,0.00,,,0.02,WUHU216HW,2013-03-15 16:49:00,
2013-03-15 12:54:00,43.3,37.5,29.90,WNW,293,0.0,0.0,80,0.00,,,0.02,WUHU216HW,2013-03-15 16:54:00,
2013-03-15 12:59:00,43.5,37.7,29.89,West,270,1.3,1.3,80,0.00,,,0.02,WUHU216HW,2013-03-15 16:59:00,
2013-03-15 13:04:00,43.8,37.7,29.89,West,270,1.1,2.2,79,0.00,,,0.02,WUHU216HW,2013-03-15 17:04:00,
2013-03-15 13:09:00,43.8,37.7,29.89,WNW,293,0.0,2.2,79,0.00,,,0.02,WUHU216HW,2013-03-15 17:09:00,
2013-03-15 13:14:00,44.4,38.3,29.89,WNW,293,0.0,0.0,79,0.00,,,0.02,WUHU216HW,2013-03-15 17:14:00,
2013-03-15 13:19:00,44.7,38.6,29.88,SE,135,0.0,0.0,79,0.00,,,0.02,WUHU216HW,2013-03-15 17:19:00,
2013-03-15 13:24:00,45.1,39.0,29.88,SE,135,0.0,0.0,79,0.00,,,0.02,WUHU216HW,2013-03-15 17:24:00,
2013-03-15 13:29:00,46.0,39.2,29.88,SW,225,0.0,6.9,77,0.00,,,0.02,WUHU216HW,2013-03-15 17:29:00,
2013-03-15 13:34:00,46.2,39.4,29.88,East,90,0.0,6.9,77,0.00,,,0.02,WUHU216HW,2013-03-15 17:34:00,
2013-03-15 13:39:00,46.5,39.4,29.88,ESE,113,0.0,3.3,76,0.00,,,0.02,WUHU216HW,2013-03-15 17:39:00,
2013-03-15 13:44:00,46.7,39.5,29.88,East,90,0.0,0.0,76,0.00,,,0.02,WUHU216HW,2013-03-15 17:44:00,
2013-03-15 13:49:00,47.1,39.9,29.87,NW,315,3.3,3.3,76,0.00,,,0.02,WUHU216HW,2013-03-15 17:49:00,
2013-03-15 13:54:00,47.4,39.9,29.88,SSE,158,0.0,3.3,75,0.00,,,0.02,WUHU216HW,2013-03-15 17:54:00,
2013-03-15 13:59:00,48.0,40.3,29.87,WNW,293,0.0,3.3,75,0.00,,,0.02,WUHU216HW,2013-03-15 17:59:00,
2013-03-15 14:04:00,48.2,40.5,29.87,NW,315,0.0,3.3,75,0.00,,,0.02,WUHU216HW,2013-03-15 18:04:00,
2013-03-15 14:09:00,48.3,40.3,29.87,NW,315,0.0,0.0,74,0.00,,,0.02,WUHU216HW,2013-03-15 18:09:00,
2013-03-15 14:14:00,48.7,40.7,29.87,ENE,68,0.0,0.0,74,0.00,,,0.02,WUHU216HW,2013-03-15 18:14:00,
2013-03-15 14:19:00,49.1,40.7,29.87,East,90,0.0,0.0,73,0.00,,,0.02,WUHU216HW,2013-03-15 18:19:00,
2013-03-15 14:24:00,49.6,41.3,29.86,East,90,0.0,0.0,73,0.00,,,0.02,WUHU216HW,2013-03-15 18:24:00,
2013-03-15 14:29:00,49.8,41.4,29.86,SSE,158,1.5,2.4,73,0.00,,,0.02,WUHU216HW,2013-03-15 18:29:00,
2013-03-15 14:34:00,50.1,41.5,29.86,ESE,113,0.0,2.4,72,0.00,,,0.02,WUHU216HW,2013-03-15 18:34:00,
2013-03-15 14:39:00,50.1,41.5,29.86,ESE,113,0.0,1.5,72,0.00,,,0.02,WUHU216HW,2013-03-15 18:39:00,
2013-03-15 14:44:00,50.5,41.8,29.85,SE,135,0.0,0.0,72,0.00,,,0.02,WUHU216HW,2013-03-15 18:44:00,
2013-03-15 14:49:00,50.7,41.7,29.85,SE,135,2.4,2.4,71,0.00,,,0.02,WUHU216HW,2013-03-15 18:49:00,
2013-03-15 14:54:00,50.7,41.7,29.84,ESE,113,0.0,2.4,71,0.00,,,0.02,WUHU216HW,2013-03-15 18:54:00,
2013-03-15 14:59:00,51.0,42.0,29.84,East,90,0.0,0.0,71,0.00,,,0.02,WUHU216HW,2013-03-15 18:59:00,
2013-03-15 15:04:00,51.4,42.4,29.84,ENE,68,2.2,2.2,71,0.00,,,0.02,WUHU216HW,2013-03-15 19:04:00,
2013-03-15 15:09:00,51.6,42.2,29.83,ENE,68,0.4,2.2,70,0.00,,,0.02,WUHU216HW,2013-03-15 19:09:00,
2013-03-15 15:14:00,51.9,42.6,29.83,SE,135,2.2,2.2,70,0.00,,,0.02,WUHU216HW,2013-03-15 19:14:00,
2013-03-15 15:19:00,52.3,42.5,29.83,ENE,68,0.0,2.2,69,0.00,,,0.02,WUHU216HW,2013-03-15 19:19:00,
2013-03-15 15:24:00,52.7,42.4,29.82,SW,225,0.0,6.2,68,0.00,,,0.02,WUHU216HW,2013-03-15 19:24:00,
2013-03-15 15:29:00,52.8,42.1,29.82,SW,225,0.0,6.2,67,0.00,,,0.02,WUHU216HW,2013-03-15 19:29:00,
2013-03-15 15:34:00,52.8,42.1,29.82,SE,135,0.0,0.0,67,0.00,,,0.02,WUHU216HW,2013-03-15 19:34:00,
2013-03-15 15:39:00,53.2,42.5,29.81,WSW,248,0.0,0.0,67,0.00,,,0.02,WUHU216HW,2013-03-15 19:39:00,
2013-03-15 15:44:00,53.4,42.2,29.81,SE,135,0.0,0.0,66,0.00,,,0.02,WUHU216HW,2013-03-15 19:44:00,
2013-03-15 15:49:00,53.6,42.6,29.81,SE,135,0.0,0.0,66,0.00,,,0.02,WUHU216HW,2013-03-15 19:49:00,
2013-03-15 15:54:00,53.7,42.6,29.81,West,270,0.0,0.0,66,0.00,,,0.02,WUHU216HW,2013-03-15 19:54:00,
2013-03-15 15:59:00,53.7,42.6,29.81,West,270,0.0,0.0,66,0.00,,,0.02,WUHU216HW,2013-03-15 19:59:00,
2013-03-15 16:04:00,53.7,42.2,29.80,West,270,0.0,0.0,65,0.00,,,0.02,WUHU216HW,2013-03-15 20:04:00,
2013-03-15 16:09:00,53.7,42.2,29.81,West,270,0.0,0.0,65,0.00,,,0.02,WUHU216HW,2013-03-15 20:09:00,
2013-03-15 16:14:00,53.9,42.8,29.81,West,270,0.0,0.0,66,0.00,,,0.02,WUHU216HW,2013-03-15 20:14:00,
2013-03-15 16:19:00,54.1,42.1,29.80,SE,135,0.0,0.0,64,0.00,,,0.02,WUHU216HW,2013-03-15 20:19:00,
2013-03-15 16:24:00,54.3,42.3,29.80,SSW,203,0.0,0.0,64,0.00,,,0.02,WUHU216HW,2013-03-15 20:24:00,
2013-03-15 16:29:00,54.3,42.3,29.79,SE,135,0.0,0.0,64,0.00,,,0.02,WUHU216HW,2013-03-15 20:29:00,
2013-03-15 16:34:00,54.3,42.3,29.80,NW,315,0.0,0.0,64,0.00,,,0.02,WUHU216HW,2013-03-15 20:34:00,
2013-03-15 16:39:00,54.5,42.5,29.80,WNW,293,0.0,0.0,64,0.00,,,0.02,WUHU216HW,2013-03-15 20:39:00,
2013-03-15 16:44:00,54.5,42.5,29.79,NW,315,0.0,0.0,64,0.00,,,0.02,WUHU216HW,2013-03-15 20:44:00,
2013-03-15 16:49:00,54.8,42.6,29.78,SE,135,0.0,3.5,64,0.00,,,0.02,WUHU216HW,2013-03-15 20:49:00,
2013-03-15 16:54:00,55.2,42.7,29.78,SE,135,0.0,3.5,63,0.00,,,0.02,WUHU216HW,2013-03-15 20:54:00,
2013-03-15 16:59:00,55.2,42.7,29.78,SE,135,4.9,4.9,63,0.00,,,0.02,WUHU216HW,2013-03-15 20:59:00,
2013-03-15 17:04:00,55.5,43.1,29.78,SSE,158,0.0,4.9,63,0.00,,,0.02,WUHU216HW,2013-03-15 21:04:00,
2013-03-15 17:09:00,55.7,42.8,29.78,SSW,203,5.1,5.1,62,0.00,,,0.02,WUHU216HW,2013-03-15 21:09:00,
2013-03-15 17:14:00,55.9,42.6,29.77,SW,225,0.0,5.1,61,0.00,,,0.02,WUHU216HW,2013-03-15 21:14:00,
2013-03-15 17:19:00,55.9,42.6,29.78,SW,225,0.0,5.1,61,0.00,,,0.02,WUHU216HW,2013-03-15 21:19:00,
2013-03-15 17:24:00,55.9,42.6,29.78,SSW,203,0.0,0.0,61,0.00,,,0.02,WUHU216HW,2013-03-15 21:24:00,
2013-03-15 17:29:00,55.9,42.6,29.78,SSW,203,0.0,0.0,61,0.00,,,0.02,WUHU216HW,2013-03-15 21:29:00,
2013-03-15 17:34:00,55.9,42.6,29.78,SSW,203,0.0,0.0,61,0.00,,,0.02,WUHU216HW,2013-03-15 21:34:00,
2013-03-15 17:40:00,55.9,42.2,29.78,SW,225,0.0,0.0,60,0.00,,,0.02,WUHU216HW,2013-03-15 21:40:00,
2013-03-15 17:45:00,55.9,42.2,29.78,West,270,0.4,0.4,60,0.00,,,0.02,WUHU216HW,2013-03-15 21:45:00,
2013-03-15 17:50:00,55.9,41.7,29.78,WSW,248,0.0,0.6,59,0.00,,,0.02,WUHU216HW,2013-03-15 21:50:00,
2013-03-15 17:55:00,55.9,41.7,29.78,WSW,248,0.0,0.6,59,0.00,,,0.02,WUHU216HW,2013-03-15 21:55:00,
2013-03-15 18:00:00,55.9,41.7,29.77,WSW,248,0.0,0.0,59,0.00,,,0.02,WUHU216HW,2013-03-15 22:00:00,
2013-03-15 18:05:00,55.9,41.7,29.77,SE,135,0.0,0.0,59,0.00,,,0.02,WUHU216HW,2013-03-15 22:05:00,
2013-03-15 18:10:00,55.9,41.7,29.77,SE,135,0.0,0.0,59,0.00,,,0.02,WUHU216HW,2013-03-15 22:10:00,
2013-03-15 18:15:00,55.9,42.2,29.77,SE,135,0.0,0.0,60,0.00,,,0.02,WUHU216HW,2013-03-15 22:15:00,
2013-03-15 18:20:00,55.7,42.0,29.77,SE,135,0.0,0.0,60,0.00,,,0.02,WUHU216HW,2013-03-15 22:20:00,
2013-03-15 18:25:00,55.7,42.0,29.77,SW,225,0.0,0.0,60,0.00,,,0.02,WUHU216HW,2013-03-15 22:25:00,
2013-03-15 18:30:00,55.5,41.9,29.77,WSW,248,0.0,0.0,60,0.00,,,0.02,WUHU216HW,2013-03-15 22:30:00,
2013-03-15 18:35:00,55.5,41.9,29.77,WSW,248,0.0,0.0,60,0.00,,,0.02,WUHU216HW,2013-03-15 22:35:00,
2013-03-15 18:40:00,55.5,41.9,29.77,WSW,248,0.0,0.0,60,0.00,,,0.02,WUHU216HW,2013-03-15 22:40:00,
2013-03-15 18:45:00,55.4,41.7,29.77,WSW,248,0.0,0.0,60,0.00,,,0.02,WUHU216HW,2013-03-15 22:45:00,
2013-03-15 18:50:00,55.2,41.5,29.77,WSW,248,0.0,0.0,60,0.00,,,0.02,WUHU216HW,2013-03-15 22:50:00,
2013-03-15 18:55:00,55.2,41.5,29.76,WSW,248,0.0,0.0,60,0.00,,,0.02,WUHU216HW,2013-03-15 22:55:00,
2013-03-15 19:00:00,55.2,41.9,29.76,WSW,248,0.0,0.0,61,0.00,,,0.02,WUHU216HW,2013-03-15 23:00:00,
2013-03-15 19:05:00,55.0,41.7,29.76,WSW,248,0.0,0.0,61,0.00,,,0.02,WUHU216HW,2013-03-15 23:05:00,
2013-03-15 19:10:00,55.0,41.7,29.76,WSW,248,0.0,0.0,61,0.00,,,0.02,WUHU216HW,2013-03-15 23:10:00,
2013-03-15 19:15:00,54.6,41.4,29.76,WSW,248,0.0,0.0,61,0.00,,,0.02,WUHU216HW,2013-03-15 23:15:00,
2013-03-15 19:20:00,54.5,41.7,29.76,WSW,248,0.0,0.0,62,0.00,,,0.02,WUHU216HW,2013-03-15 23:20:00,
2013-03-15 19:25:00,54.3,41.5,29.75,WSW,248,0.0,0.0,62,0.00,,,0.02,WUHU216HW,2013-03-15 23:25:00,
2013-03-15 19:30:00,54.3,41.5,29.76,WSW,248,0.0,0.0,62,0.00,,,0.02,WUHU216HW,2013-03-15 23:30:00,
2013-03-15 19:35:00,54.1,41.7,29.75,WSW,248,0.0,0.0,63,0.00,,,0.02,WUHU216HW,2013-03-15 23:35:00,
2013-03-15 19:40:00,53.9,41.6,29.75,WSW,248,0.0,0.0,63,0.00,,,0.02,WUHU216HW,2013-03-15 23:40:00,
2013-03-15 19:45:00,53.7,41.4,29.76,WSW,248,0.0,0.0,63,0.00,,,0.02,WUHU216HW,2013-03-15 23:45:00,
2013-03-15 19:50:00,53.4,41.1,29.76,WSW,248,0.0,0.0,63,0.00,,,0.02,WUHU216HW,2013-03-15 23:50:00,
2013-03-15 19:55:00,53.2,41.3,29.75,WSW,248,0.0,0.0,64,0.00,,,0.02,WUHU216HW,2013-03-15 23:55:00,
2013-03-15 20:00:00,53.0,41.1,29.75,WSW,248,0.0,0.0,64,0.00,,,0.02,WUHU216HW,2013-03-16 00:00:00,
2013-03-15 20:05:00,52.7,40.8,29.76,WSW,248,0.0,0.0,64,0.00,,,0.02,WUHU216HW,2013-03-16 00:05:00,
2013-03-15 20:10:00,52.5,40.6,29.76,WSW,248,0.0,0.0,64,0.00,,,0.02,WUHU216HW,2013-03-16 00:10:00,
2013-03-15 20:15:00,52.3,40.8,29.76,WSW,248,0.0,0.0,65,0.00,,,0.02,WUHU216HW,2013-03-16 00:15:00,
2013-03-15 20:20:00,52.1,40.7,29.74,WSW,248,0.0,0.0,65,0.00,,,0.02,WUHU216HW,2013-03-16 00:20:00,
2013-03-15 20:25:00,51.9,40.9,29.73,WSW,248,0.0,0.0,66,0.00,,,0.02,WUHU216HW,2013-03-16 00:25:00,
2013-03-15 20:30:00,51.6,40.6,29.73,West,270,0.0,0.0,66,0.00,,,0.02,WUHU216HW,2013-03-16 00:30:00,
2013-03-15 20:35:00,51.4,40.4,29.74,WNW,293,0.0,0.0,66,0.00,,,0.02,WUHU216HW,2013-03-16 00:35:00,
2013-03-15 20:40:00,51.0,40.0,29.74,WNW,293,0.0,0.0,66,0.00,,,0.02,WUHU216HW,2013-03-16 00:40:00,
2013-03-15 20:45:00,50.9,40.3,29.73,WNW,293,0.0,0.0,67,0.00,,,0.02,WUHU216HW,2013-03-16 00:45:00,
2013-03-15 20:50:00,50.7,40.1,29.72,WNW,293,0.0,0.0,67,0.00,,,0.02,WUHU216HW,2013-03-16 00:50:00,
2013-03-15 20:55:00,50.5,40.3,29.73,WNW,293,0.0,0.0,68,0.00,,,0.02,WUHU216HW,2013-03-16 00:55:00,
2013-03-15 21:00:00,50.3,40.1,29.73,WNW,293,0.0,0.0,68,0.00,,,0.02,WUHU216HW,2013-03-16 01:00:00,
2013-03-15 21:05:00,50.1,40.5,29.71,NW,315,0.0,0.0,69,0.00,,,0.02,WUHU216HW,2013-03-16 01:05:00,
2013-03-15 21:10:00,50.0,39.8,29.69,NW,315,0.0,0.0,68,0.00,,,0.02,WUHU216HW,2013-03-16 01:10:00,
2013-03-15 21:15:00,49.8,40.0,29.69,NW,315,0.0,0.0,69,0.00,,,0.02,WUHU216HW,2013-03-16 01:15:00,
2013-03-15 21:20:00,49.6,39.8,29.69,NW,315,0.0,0.0,69,0.00,,,0.02,WUHU216HW,2013-03-16 01:20:00,
2013-03-15 21:25:00,49.6,39.8,29.69,NW,315,0.0,0.0,69,0.00,,,0.02,WUHU216HW,2013-03-16 01:25:00,
2013-03-15 21:30:00,49.6,40.2,29.70,ENE,68,0.0,0.0,70,0.00,,,0.02,WUHU216HW,2013-03-16 01:30:00,
2013-03-15 21:35:00,49.6,40.2,29.69,ENE,68,0.0,0.0,70,0.00,,,0.02,WUHU216HW,2013-03-16 01:35:00,
2013-03-15 21:40:00,49.6,40.2,29.69,ENE,68,0.0,0.0,70,0.00,,,0.02,WUHU216HW,2013-03-16 01:40:00,
2013-03-15 21:45:00,49.6,40.2,29.69,ENE,68,0.0,0.0,70,0.00,,,0.02,WUHU216HW,2013-03-16 01:45:00,
2013-03-15 21:50:00,49.6,40.2,29.68,ENE,68,0.0,0.0,70,0.00,,,0.02,WUHU216HW,2013-03-16 01:50:00,
2013-03-15 21:55:00,49.4,40.1,29.68,ENE,68,0.0,0.0,70,0.00,,,0.02,WUHU216HW,2013-03-16 01:55:00,
2013-03-15 22:00:00,49.2,39.9,29.67,ENE,68,0.0,0.0,70,0.00,,,0.02,WUHU216HW,2013-03-16 02:00:00,
2013-03-15 22:05:00,49.1,40.0,29.68,ENE,68,0.0,0.0,71,0.00,,,0.02,WUHU216HW,2013-03-16 02:05:00,
2013-03-15 22:10:00,49.1,40.0,29.67,ENE,68,0.0,0.0,71,0.00,,,0.02,WUHU216HW,2013-03-16 02:10:00,
2013-03-15 22:15:00,48.9,39.9,29.66,ENE,68,0.0,0.0,71,0.00,,,0.02,WUHU216HW,2013-03-16 02:15:00,
2013-03-15 22:20:00,48.9,39.9,29.66,ENE,68,0.0,0.0,71,0.00,,,0.02,WUHU216HW,2013-03-16 02:20:00,
2013-03-15 22:25:00,48.7,39.7,29.67,NNE,23,0.0,0.0,71,0.00,,,0.02,WUHU216HW,2013-03-16 02:25:00,
2013-03-15 22:30:00,48.7,40.0,29.67,NNE,23,0.0,0.0,72,0.00,,,0.02,WUHU216HW,2013-03-16 02:30:00,
2013-03-15 22:35:00,48.5,39.8,29.66,NNE,23,0.0,0.0,72,0.00,,,0.02,WUHU216HW,2013-03-16 02:35:00,
2013-03-15 22:40:00,48.3,39.7,29.64,NNE,23,0.0,0.0,72,0.00,,,0.02,WUHU216HW,2013-03-16 02:40:00,
2013-03-15 22:45:00,48.3,39.7,29.64,NNE,23,0.0,0.0,72,0.00,,,0.02,WUHU216HW,2013-03-16 02:45:00,
2013-03-15 22:50:00,48.3,40.0,29.64,NE,45,0.0,0.0,73,0.00,,,0.02,WUHU216HW,2013-03-16 02:50:00,
2013-03-15 22:55:00,48.5,40.2,29.64,NE,45,0.0,0.0,73,0.00,,,0.02,WUHU216HW,2013-03-16 02:55:00,
2013-03-15 23:00:00,48.5,40.2,29.64,SE,135,0.0,0.0,73,0.00,,,0.02,WUHU216HW,2013-03-16 03:00:00,
2013-03-15 23:05:00,48.7,40.4,29.64,SSE,158,0.0,0.0,73,0.00,,,0.02,WUHU216HW,2013-03-16 03:05:00,
2013-03-15 23:10:00,48.9,40.5,29.64,SSE,158,0.0,0.0,73,0.00,,,0.02,WUHU216HW,2013-03-16 03:10:00,
2013-03-15 23:15:00,49.1,40.4,29.64,SE,135,0.0,0.0,72,0.00,,,0.02,WUHU216HW,2013-03-16 03:15:00,
2013-03-15 23:20:00,49.6,40.9,29.63,SE,135,0.0,0.0,72,0.00,,,0.02,WUHU216HW,2013-03-16 03:20:00,
2013-03-15 23:25:00,49.6,40.9,29.63,SSE,158,0.0,0.0,72,0.00,,,0.02,WUHU216HW,2013-03-16 03:25:00,
2013-03-15 23:30:00,49.8,41.1,29.63,ESE,113,0.0,0.0,72,0.00,,,0.02,WUHU216HW,2013-03-16 03:30:00,
2013-03-15 23:35:00,49.6,40.9,29.62,East,90,0.0,0.0,72,0.00,,,0.02,WUHU216HW,2013-03-16 03:35:00,
2013-03-15 23:40:00,49.6,40.9,29.62,East,90,0.0,0.0,72,0.00,,,0.02,WUHU216HW,2013-03-16 03:40:00,
2013-03-15 23:45:00,49.6,40.9,29.63,East,90,0.0,0.0,72,0.00,,,0.02,WUHU216HW,2013-03-16 03:45:00,
2013-03-15 23:50:00,49.2,40.6,29.62,East,90,0.0,0.0,72,0.00,,,0.02,WUHU216HW,2013-03-16 03:50:00,
2013-03-15 23:55:00,49.2,40.6,29.62,East,90,0.0,0.0,72,0.00,,,0.02,WUHU216HW,2013-03-16 03:55:00,